Temp
17 17 18 18 18 18 19 19 18 19 19 20 20 20 20 20 20 20 20 27 27 27 27 26 27 27 25 22 23 22 22 22 22 22 22 24 25 28 29 28 28 27 25 23 21
16 17 18 18 18 18 19 19 19 18 19 20 20 20 19 19 18 18 27 27 27 27 27 27 26 27 24 23 22 22 22 24 24 23 23 24 24 24 27 28 26 25 23 22 21
16 17 18 18 18 18 19 19 20 19 19 19 20 20 19 18 17 25 28 27 27 26 27 27 27 27 25 22 23 23 23 25 24 24 23 24 24 22 27 27 25 23 22 22 21
17 18 18 18 19 19 19 20 20 20 19 19 19 19 19 18 25 28 29 28 26 26 26 26 25 26 25 23 24 24 25 25 24 24 23 23 22 22 25 27 26 25 24 23 21
17 18 18 19 19 19 20 20 20 20 20 20 19 19 18 20 23 27 27 27 26 26 26 26 27 27 26 24 24 24 25 25 25 24 23 23 22 24 26 28 26 25 24 23 22
18 17 17 18 19 19 20 20 21 21 20 20 19 18 17 25 28 27 26 26 26 26 26 26 27 28 28 26 26 25 25 25 25 24 24 23 23 23 26 28 26 25 23 23 22
17 17 18 19 19 20 21 21 22 21 20 20 19 17 18 25 27 27 27 27 27 27 25 27 28 28 29 25 27 25 24 25 25 24 24 23 23 23 24 27 26 25 24 24 24
17 18 18 19 20 20 22 23 23 22 20 19 18 16 21 27 27 27 27 27 27 27 28 29 28 27 27 26 26 27 25 25 24 25 25 24 24 23 23 26 27 26 25 24 23
17 18 18 19 20 22 24 24 24 22 20 18 18 18 23 28 27 29 28 28 28 28 28 29 29 27 27 25 23 24 26 25 25 24 25 24 25 25 23 26 25 24 25 24 23
17 18 19 20 21 23 24 24 21 20 18 18 18 21 25 28 29 30 30 29 29 28 28 29 22 24 22 23 23 25 25 25 25 24 24 24 24 23 24 24 25 25 24 22 23
17 18 19 20 21 24 24 22 20 21 19 25 25 26 27 29 30 30 30 29 28 27 26 25 24 24 25 26 28 28 27 26 25 25 24 24 25 24 23 23 23 24 23 23 22
18 18 19 21 22 24 23 21 24 25 22 22 24 24 27 29 29 30 30 28 28 26 26 23 23 25 26 26 27 27 27 26 27 25 25 24 24 24 22 24 24 23 24 24 23
18 18 19 21 22 23 21 23 24 24 22 25 25 26 27 27 28 27 28 27 27 26 25 24 27 27 27 28 28 27 26 25 28 25 25 25 24 23 22 23 23 23 25 25 24
18 18 19 21 21 21 22 25 26 24 21 25 28 29 28 28 28 29 29 28 27 26 24 24 26 27 27 27 26 26 28 28 29 25 24 25 24 24 22 22 22 23 23 23 23
18 18 19 19 19 18 26 26 26 24 24 29 29 31 27 28 29 30 29 28 28 28 27 26 29 28 27 27 27 27 29 28 28 25 26 26 24 25 22 21 21 23 24 23 24
18 19 19 18 17 24 24 26 26 22 23 29 29 29 28 28 29 29 29 29 29 29 27 26 29 29 29 31 30 29 28 25 22 22 23 24 24 22 21 21 22 22 22 23 24
18 20 17 16 19 24 24 22 22 22 27 29 28 28 28 27 28 28 28 27 26 27 27 27 29 30 31 30 28 25 24 22 24 23 23 23 24 22 22 22 21 21 22 23 24
19 21 21 21 23 21 22 21 23 25 25 28 29 27 27 27 27 27 27 26 26 26 23 26 25 28 30 29 27 27 24 22 25 22 23 24 24 22 22 21 21 21 21 21 22
19 20 17 22 22 21 19 20 22 23 27 27 27 27 27 28 28 28 25 25 26 24 26 24 27 29 30 29 28 28 26 25 20 20 22 22 23 22 21 20 20 21 20 20 20
16 15 17 21 22 21 20 20 21 24 27 26 26 27 27 28 28 26 25 28 28 26 26 27 28 27 28 29 27 29 24 25 20 24 25 22 23 22 22 21 20 20 19 20 19
16 15 21 21 22 19 21 21 22 25 26 26 26 25 27 29 28 26 27 30 30 28 26 25 25 28 26 26 26 26 24 19 19 19 20 21 21 21 21 20 20 20 19 18 19
12 17 21 21 19 15 19 21 24 25 26 26 25 24 27 28 29 28 27 29 29 27 28 26 20 23 26 26 26 26 25 21 21 22 18 19 20 21 20 20 19 20 20 20 19
9 10 22 22 19 18 19 23 25 26 25 26 26 27 27 26 29 28 29 30 28 28 26 25 21 22 24 24 25 27 25 20 18 17 19 20 21 19 19 19 19 19 19 19 20
10 14 14 14 15 19 19 21 24 27 26 26 26 26 26 26 27 28 29 30 29 28 24 23 19 22 22 24 24 26 26 22 21 20 19 19 22 19 18 19 20 19 20 20 20
10 14 14 14 16 15 18 20 23 23 25 24 25 26 25 24 26 27 28 29 28 25 25 24 24 23 24 24 25 25 25 24 24 21 23 23 21 22 19 18 19 19 20 21 20
12 13 12 13 13 16 18 21 21 22 23 24 24 24 24 24 25 26 27 26 27 27 26 21 23 23 26 25 24 26 26 25 24 22 23 22 23 21 19 19 19 19 19 21 21
12 12 12 13 14 16 17 18 19 20 22 24 24 23 24 26 26 25 25 24 25 24 23 22 21 21 24 24 25 25 25 25 24 23 22 22 22 19 20 20 20 20 19 19 19
Height
798 795 793 791 789 787 785 783 781 779 776 774 771 770 768 768 767 766 764 760 761 763 764 768 766 765 767 773 775 777 798 809 808 810 808 794 792 779 774 780 781 781 787 794 804
797 795 793 790 788 786 784 782 779 777 775 772 770 768 767 766 766 764 757 757 760 762 764 766 766 766 774 775 777 784 801 798 789 792 798 793 794 791 786 784 790 789 794 800 805
797 794 792 789 787 784 782 780 778 776 773 770 768 767 766 766 766 756 754 757 759 761 763 765 766 766 776 777 779 782 793 783 786 786 789 794 795 794 784 792 789 792 798 803 806
797 794 791 788 786 783 780 778 777 774 772 769 768 767 766 766 778 754 754 756 758 760 762 764 769 774 780 786 777 786 779 780 784 784 788 793 794 799 787 782 782 785 790 799 806
796 794 790 787 784 781 779 777 775 773 771 769 768 767 767 767 760 753 754 755 758 760 760 764 767 769 779 780 779 786 780 775 781 787 789 789 797 796 786 779 786 791 798 802 806
796 793 790 786 783 779 777 775 773 771 770 769 768 768 768 768 752 753 753 755 757 759 760 762 763 762 769 774 778 779 778 780 782 788 790 795 796 795 785 779 789 794 800 802 805
796 792 789 785 781 778 775 773 771 769 769 768 768 768 769 760 752 753 754 754 755 757 759 759 759 763 761 777 771 780 790 786 787 788 793 794 806 801 787 784 789 795 798 802 803
796 792 787 783 779 776 773 771 769 767 767 768 768 768 765 752 752 753 754 755 756 757 758 757 758 762 764 769 778 784 790 804 790 788 786 795 810 792 787 786 789 795 800 800 803
796 791 786 781 777 773 770 768 766 766 766 767 769 768 764 751 751 750 752 753 755 756 756 756 758 765 768 786 802 796 805 801 796 787 788 796 801 788 787 786 791 794 797 802 804
795 790 785 780 775 771 768 765 764 765 767 768 768 772 754 752 747 748 749 751 754 755 758 758 771 782 789 799 822 806 804 797 798 790 790 798 799 791 787 787 790 791 795 798 801
793 788 783 778 773 769 767 767 769 769 767 760 757 755 750 746 746 747 748 751 753 759 778 771 788 795 782 780 778 781 791 796 788 783 790 794 794 792 788 790 791 792 795 797 799
792 787 782 777 771 767 766 768 769 773 772 749 749 751 746 745 752 746 747 756 761 778 773 788 797 775 774 778 781 787 788 794 782 782 789 793 793 788 790 789 789 790 793 793 796
791 786 781 775 769 768 767 768 768 767 775 753 744 744 742 744 751 749 747 753 764 775 778 791 774 763 771 773 780 784 790 791 784 784 786 792 800 795 790 789 790 789 787 788 791
790 785 780 774 773 769 766 766 764 762 793 768 749 740 738 740 752 738 741 750 761 774 779 782 763 766 774 778 780 793 765 770 770 792 817 789 821 796 794 792 792 789 790 789 791
788 783 779 776 774 771 765 763 761 762 815 751 745 729 733 747 742 742 739 748 764 764 770 776 761 766 774 768 766 776 757 765 769 794 799 798 815 797 796 805 798 788 786 787 786
784 780 775 773 771 764 764 761 761 800 812 756 740 745 749 745 744 740 744 743 745 757 762 763 744 750 754 745 749 748 769 784 795 807 828 807 812 817 809 805 794 786 784 782 783
778 774 770 769 766 763 763 763 801 815 757 757 754 747 751 757 752 750 756 762 774 783 780 765 754 743 739 756 755 769 792 830 829 833 833 806 811 815 801 794 793 784 777 778 778
772 766 760 758 760 763 764 782 805 776 769 745 744 750 761 754 755 755 762 773 759 767 790 789 794 754 740 755 771 773 788 822 831 842 826 805 816 812 796 793 787 781 776 776 779
766 759 754 750 751 760 771 802 792 775 754 756 750 760 761 750 752 755 766 769 756 760 782 794 778 743 741 744 752 771 789 780 821 826 828 823 806 799 794 794 788 783 781 779 778
766 758 752 749 750 757 778 791 778 758 750 753 767 756 767 755 757 763 766 744 747 744 744 761 778 757 748 743 752 758 771 798 815 827 827 825 815 812 796 795 790 787 784 778 774
768 766 753 751 754 763 781 778 766 751 748 759 763 767 754 748 750 759 754 737 732 739 743 758 770 767 759 769 772 774 785 805 814 826 839 839 826 790 792 792 791 786 783 781 776
777 778 757 759 772 780 779 765 754 752 748 753 751 760 752 744 745 748 750 735 723 732 747 750 782 791 774 761 759 765 775 793 815 820 831 832 823 785 789 790 789 786 781 778 773
790 784 758 758 781 781 769 759 751 751 752 751 750 745 744 754 750 740 736 722 721 731 747 749 786 805 793 780 766 767 771 790 804 814 825 828 818 790 789 789 786 784 780 776 772
790 789 772 767 774 773 777 768 758 740 744 742 742 740 744 750 739 741 735 726 722 726 732 741 782 786 804 786 776 776 771 783 793 815 822 817 797 796 792 788 784 780 775 773 773
792 791 789 791 782 783 777 769 761 760 745 743 742 740 748 758 745 741 733 731 728 731 735 746 773 773 772 769 768 769 772 776 782 792 799 791 793 779 784 785 782 780 775 773 774
793 793 791 792 786 781 776 766 765 760 752 752 754 745 744 751 739 742 734 737 737 734 741 754 776 773 770 764 766 767 766 768 774 785 782 784 786 774 776 778 781 779 778 773 775
792 792 792 789 786 782 778 773 767 762 750 742 743 747 740 727 717 714 711 720 724 737 750 758 772 783 785 773 768 782 767 768 773 773 778 792 777 778 781 779 777 774 775 775 777
Wind_Speed
13 12 13 14 14 14 14 14 14 14 14 15 13 10 9 9 7 3 5 4 3 7 2 7 5 4 4 3 3 3 3 3 7 9 5 9 5 4 2 10 3 4 7 14 27
14 14 14 14 14 15 15 15 14 15 16 15 11 7 7 9 5 7 5 11 7 6 3 7 4 5 3 2 1 3 3 5 7 6 6 2 4 4 5 11 5 15 16 26 27
16 16 15 15 15 15 15 15 14 15 15 13 7 5 6 6 2 4 10 13 10 5 2 4 5 2 3 2 1 2 4 3 9 10 6 6 0 5 11 11 9 20 18 21 23
18 17 17 17 16 16 15 14 14 14 14 9 5 3 4 2 4 2 6 14 10 6 4 5 4 4 5 5 4 1 2 5 6 8 6 8 5 6 5 5 12 22 24 24 14
20 19 19 19 18 17 16 14 13 13 11 7 3 3 2 2 6 4 7 13 13 9 6 4 3 4 3 5 4 1 2 4 7 8 2 9 7 6 4 11 14 20 20 18 15
22 22 23 22 20 18 16 14 13 12 8 4 3 3 2 2 2 4 7 13 12 13 5 5 5 2 3 5 2 4 3 9 7 6 7 7 3 7 1 8 18 19 18 17 16
26 25 25 25 22 19 15 13 12 11 4 3 1 2 1 7 2 5 8 10 14 15 5 9 3 2 1 5 3 6 6 4 5 7 5 5 2 6 5 8 21 19 17 17 18
26 26 26 26 24 22 16 13 11 7 1 2 2 1 5 0 4 9 8 5 9 10 7 8 8 2 3 7 4 2 2 0 5 4 4 5 4 5 2 7 9 18 14 17 13
27 28 28 27 25 22 15 13 10 2 3 3 1 1 8 5 4 10 11 5 8 10 9 12 2 3 3 6 3 3 3 4 1 8 5 7 2 5 2 7 9 14 15 12 13
29 30 29 29 28 23 17 12 1 2 4 2 1 2 5 2 4 5 12 11 3 2 2 2 5 3 3 4 5 6 1 2 5 7 5 10 7 6 6 7 12 11 10 9 12
30 31 30 29 31 23 15 3 4 2 3 7 6 4 5 2 5 5 7 8 4 4 3 4 4 5 11 5 3 4 4 7 3 7 5 12 7 7 7 4 11 11 10 9 9
31 31 31 28 30 17 8 3 3 1 8 9 7 6 10 2 2 2 5 4 3 4 3 6 5 10 4 6 4 5 3 5 1 7 2 4 11 5 8 7 10 13 12 12 8
31 32 33 29 22 5 10 5 4 17 1 7 5 5 5 10 6 8 8 4 3 3 4 5 6 4 4 4 3 2 7 4 4 6 2 3 4 5 3 2 5 6 11 12 13
31 33 33 31 6 15 9 4 21 4 4 6 3 5 4 5 3 7 15 5 2 7 7 5 4 7 5 6 7 5 9 12 6 5 3 8 4 4 5 11 8 11 9 11 10
31 35 33 25 16 5 4 19 17 4 3 2 4 1 4 8 2 3 6 4 5 5 5 7 3 4 5 8 9 9 14 12 1 5 2 3 2 3 4 2 7 13 10 10 12
36 35 32 11 11 17 11 17 2 5 5 2 5 5 5 2 2 2 4 2 2 3 3 7 4 5 6 2 4 7 5 8 6 4 2 5 6 4 3 4 4 10 12 11 15
40 33 31 18 5 3 16 4 4 3 4 3 5 4 5 6 4 5 4 5 4 2 3 6 3 2 3 3 5 7 7 2 2 3 5 3 2 1 2 2 3 8 14 12 12
42 36 19 20 6 11 2 5 3 4 6 4 3 3 7 6 6 5 3 3 4 4 2 2 7 4 2 7 7 5 8 6 5 4 5 1 2 4 3 2 2 7 1 6 7
41 22 13 8 12 10 5 3 7 5 3 6 4 4 2 4 5 5 8 4 7 8 7 4 5 3 2 4 6 4 2 3 7 4 2 2 2 1 4 3 5 5 7 3 3
32 12 8 8 14 12 4 5 4 4 5 4 5 3 6 5 7 8 6 4 5 11 5 5 1 2 4 4 5 3 5 2 4 3 2 4 4 4 5 1 3 4 4 2 2
8 5 16 6 12 5 4 6 4 5 7 5 1 4 6 2 6 4 8 4 5 4 7 6 3 2 3 3 3 3 2 7 6 3 5 2 6 5 6 5 2 4 6 6 3
6 3 6 9 3 1 3 5 2 2 3 6 3 7 4 5 2 5 7 7 6 9 5 2 5 2 2 1 1 2 3 5 5 4 1 3 5 2 5 3 5 6 5 3 4
3 3 3 2 1 2 6 5 5 3 4 3 4 1 3 7 4 4 2 3 8 4 7 6 2 3 7 6 4 2 4 5 6 3 4 5 5 3 5 1 4 3 2 5 7
2 4 4 4 2 3 4 5 4 3 4 6 7 4 1 5 5 6 2 5 2 5 7 8 3 6 7 6 3 3 4 4 5 4 5 5 3 6 8 7 5 5 3 2 6
2 2 2 4 4 4 2 4 5 5 4 5 4 4 2 5 5 5 4 2 4 3 4 5 3 3 4 5 3 4 6 8 4 6 6 6 8 5 8 9 9 5 5 4 6
1 2 4 3 3 4 2 2 5 6 2 3 4 12 9 8 8 8 7 3 5 2 3 3 2 5 2 5 7 3 7 7 4 4 3 2 4 3 3 5 5 7 6 7 4
3 2 3 3 3 2 3 3 7 8 7 4 8 9 8 9 8 6 7 8 8 9 4 4 6 3 3 3 4 3 4 4 4 4 6 5 7 8 4 6 5 4 4 3 4
Wind_Direction
350 346 343 341 340 340 341 339 340 339 336 332 332 328 324 322 321 259 245 198 165 178 344 112 137 184 84 74 96 173 60 138 163 155 213 268 230 157 79 136 164 156 127 139 154
352 348 342 339 338 337 337 336 336 337 338 334 330 320 325 326 315 236 235 190 161 151 112 122 146 153 72 94 39 94 111 201 167 180 190 195 336 312 183 168 88 100 102 136 152
352 348 343 340 337 335 334 332 334 338 338 338 340 333 327 332 284 252 177 178 176 177 187 138 122 39 101 349 325 142 175 139 172 170 130 171 203 304 179 185 169 143 145 152 158
355 351 346 341 338 334 332 332 335 342 344 346 345 345 338 357 112 205 157 188 185 194 196 151 109 144 158 178 200 190 296 244 147 154 149 146 340 294 239 199 163 153 155 155 168
359 355 350 346 340 334 331 333 339 348 354 359 5 10 26 331 254 215 192 185 192 190 209 139 153 171 164 163 151 179 192 119 168 146 213 133 230 282 192 137 146 144 157 168 171
3 1 359 354 348 342 338 337 339 345 354 16 19 33 6 356 274 227 199 174 184 179 187 197 189 194 241 192 240 109 58 113 152 155 145 150 235 352 110 136 151 155 168 172 176
5 3 358 354 350 345 341 336 334 338 3 36 84 35 15 232 222 184 160 175 179 180 158 213 204 89 202 106 115 119 98 117 142 167 144 128 287 204 250 165 163 170 169 176 184
1 359 356 354 351 348 339 330 327 327 75 92 87 54 251 281 279 203 179 172 189 196 224 251 240 205 132 127 59 92 76 165 153 188 186 159 238 239 250 180 174 167 167 180 184
356 355 352 351 348 344 339 324 311 249 141 101 97 70 280 319 208 230 214 188 193 220 248 259 221 126 54 94 56 258 167 229 224 193 146 180 223 206 108 197 176 161 171 172 172
353 351 349 348 345 340 338 337 303 131 111 53 261 337 274 229 202 200 219 225 182 143 12 88 51 81 59 102 200 185 223 277 215 179 195 192 251 196 161 156 166 181 167 167 174
352 349 346 345 340 333 334 340 357 8 172 213 215 240 281 255 170 200 181 140 116 66 144 356 80 205 212 167 160 133 168 205 245 179 154 199 219 211 193 191 166 171 167 174 185
350 348 344 342 334 326 345 94 165 19 302 225 233 253 260 216 261 245 163 115 121 189 124 27 231 236 127 179 221 203 190 216 83 156 151 190 227 197 183 203 183 170 176 187 160
348 346 342 341 332 347 324 277 343 339 207 299 189 198 201 151 220 211 137 159 160 170 176 165 234 140 183 271 244 255 199 190 195 158 203 341 282 177 238 191 174 206 188 186 181
345 343 340 339 340 331 296 327 331 305 53 277 247 264 123 118 239 192 179 143 144 210 169 225 255 198 180 243 150 253 181 183 207 102 239 169 275 271 179 204 194 207 189 186 179
342 339 335 333 300 282 298 325 332 116 355 187 219 185 141 153 178 211 162 63 193 231 106 255 246 174 187 223 168 222 170 184 199 99 62 320 61 257 104 249 228 215 215 195 196
337 335 330 326 294 280 302 331 42 44 257 281 165 187 110 240 234 79 154 191 196 191 233 237 222 170 205 146 184 128 78 39 42 78 4 231 159 323 6 307 289 222 219 194 191
334 330 317 290 239 270 327 13 47 159 323 235 210 169 181 193 207 159 189 185 181 94 333 332 251 255 168 133 22 77 74 6 17 19 220 147 73 215 317 323 323 281 204 208 190
331 328 311 275 235 249 287 53 202 235 253 316 244 115 182 168 221 173 154 241 218 108 91 188 318 192 191 159 181 166 155 150 182 192 242 264 268 212 201 284 349 40 31 181 213
334 326 302 302 220 194 84 128 213 213 293 341 322 140 240 248 175 138 199 224 206 167 164 171 274 289 52 123 123 185 107 170 104 10 73 282 214 316 177 20 353 41 71 53 265
333 324 292 308 165 146 91 234 230 238 344 27 34 354 206 237 154 168 190 219 222 182 156 213 243 355 357 68 48 120 149 71 20 134 208 302 281 229 229 318 326 350 11 247 262
346 359 339 138 144 55 177 228 246 253 47 9 226 273 245 260 177 220 206 241 183 129 152 144 101 286 39 43 176 24 65 54 104 114 152 188 265 212 189 193 235 267 300 296 296
0 353 146 183 52 8 191 198 289 201 31 268 216 214 333 278 248 206 201 194 172 151 127 85 126 105 186 305 341 188 139 128 119 218 106 144 271 78 136 188 260 270 300 262 249
1 269 353 214 184 288 305 292 230 257 186 253 280 311 57 282 249 185 217 331 142 118 163 184 23 54 349 359 351 185 134 106 108 93 187 143 262 177 159 189 291 286 19 347 344
30 350 326 31 26 64 0 284 276 256 248 220 248 279 48 261 255 185 137 195 211 127 118 92 121 153 185 208 152 154 149 129 104 115 175 225 251 219 217 213 248 269 125 315 306
48 284 189 323 330 337 272 278 282 6 358 307 302 233 297 271 199 185 199 111 31 113 86 102 143 150 245 237 187 183 171 165 155 171 160 225 205 215 204 197 219 233 309 315 297
58 21 353 272 290 310 297 290 351 338 270 296 302 311 297 215 205 195 145 161 178 58 76 13 149 170 25 351 156 166 189 178 157 136 283 115 269 154 188 164 225 244 262 249 238
341 345 119 274 311 306 230 1 328 328 289 236 295 304 284 246 222 234 175 164 178 150 131 121 135 105 216 350 91 357 241 149 147 158 148 167 227 147 189 216 214 204 216 126 73